[[{"header":{"parameterUnit":"m.s-1","parameterCategory":2,"la1":30.2991,"la2":30.254,"lo1":-89.0895,"lo2":-89.0444,"dy":0.0017,"dx":0.0017,"nx":28,"ny":28,"refTime":"2025-07-10T03:00:00:Z","depth":"0","parameterNumber":2,"parameterNumberName":"U-component_of_CURRENTS"},"data":[0,0,0,0,0,0,0,0,0,0,0,0,0,0,0,0,0,0,0,0,0,0,0,0,0,0,0,0,0,0,0,0,0,0,0,0,0,0,0,0,0,0,0,0,0,0,0,0,0,0,0,0,0,0,0,0,0,0,0.402,0.4021,0,0.4027,0.4027,0.4027,0.4002,0.4002,0.4001,0.4001,0.3948,0.3947,0.3946,0,0,0,0,0,0,0,0,0,0,0,0,0,0.3958,0.3959,0.402,0.4021,0.4021,0.4027,0.4027,0.4027,0.4002,0.4002,0.4001,0.4001,0.3948,0.3947,0.3945,0,0,0,0,0,0,0,0,0,0,0,0,0,0.3974,0.396,0.402,0.4012,0.4012,0.4027,0.4027,0.4027,0.4002,0.4002,0.4001,0.4,0.3948,0.3947,0.3945,0.3949,0,0,0.3941,0.394,0,0,0,0,0,0,0,0,0.3973,0.3976,0.4013,0.4013,0.4012,0.4016,0.3986,0.3999,0.4002,0.4002,0.4001,0.4,0.3967,0.3964,0.3963,0.3947,0.3944,0.3941,0.394,0.3939,0.3939,0,0,0,0,0,0,0,0.3972,0.3975,0.402,0.4013,0.4013,0.3999,0.4,0.3988,0.3985,0.4002,0.4001,0.4008,0.3966,0.3965,0.3962,0.3944,0.3941,0.3939,0.3938,0.3938,0.3949,0.395,0,0,0,0,0,0,0.3981,0.3975,0.402,0.402,0.3994,0.4001,0.4002,0.4013,0.3986,0.3983,0.4008,0.4006,0.3968,0.3964,0.396,0.3992,0.3939,0.3938,0.3937,0.3948,0.3949,0.395,0,0,0,0,0,0,0.3979,0.3985,0.4019,0.4,0.4004,0.4003,0.4015,0.4013,0.4018,0.3992,0.3987,0.4016,0.3967,0.3962,0.3961,0.3989,0.3937,0.3935,0.3946,0.3948,0.395,0.4038,0,0,0,0,0,0,0.3977,0.3984,0.3997,0.4001,0.4005,0.404,0.4016,0.4014,0.4024,0.4022,0.3997,0.3991,0.3966,0.3964,0.3959,0.3986,0.3934,0.3945,0.3947,0.3949,0.4034,0.4043,0.405,0,0,0,0,0,0.3975,0.3999,0.3998,0.4003,0.4022,0.4042,0.4043,0.4037,0.4025,0.4036,0.4019,0.3992,0.3975,0.3963,0.3958,0.3985,0.3943,0.3946,0.3949,0.403,0.4041,0.405,0,0,0,0,0,0,0.3979,0.4,0.3998,0.4026,0.4038,0.4039,0.4052,0.4046,0.4042,0.4039,0.4006,0.3999,0.4007,0.3985,0.3973,0.3994,0.3955,0.3957,0.4019,0.4029,0.4037,0.4038,0.3933,0,0,0,0,0,0.3987,0.401,0.4023,0.4046,0.4056,0.4055,0.4062,0.4061,0.4059,0.4056,0.4035,0.4019,0.4015,0.4013,0.3998,0.4012,0.4043,0.4026,0.4035,0.4042,0.404,0.4108,0.4124,0.3959,0.3959,0.3959,0,0,0.3996,0.401,0.4023,0.4048,0.4055,0.4076,0.4057,0.4079,0.4092,0.4051,0.4057,0.4043,0.4023,0.4037,0.404,0.4024,0.4117,0.4045,0.4052,0.4045,0.4113,0.4129,0.4144,0.3961,0.3961,0.396,0,0,0.4027,0.4038,0.4067,0.4082,0.4103,0.4101,0.4112,0.4118,0.4117,0.4125,0.4103,0.4111,0.409,0.4094,0.4091,0.4138,0.4155,0.4132,0.4182,0.425,0.4264,0.4277,0.4397,0.4419,0.4143,0.4143,0.4143,0,0.4034,0.4073,0.4079,0.4109,0.4126,0.4115,0.4148,0.4148,0.415,0.416,0.4134,0.4138,0.4119,0.4156,0.4169,0.4158,0.4215,0.4147,0.4264,0.4276,0.4288,0.4406,0.443,0.4147,0.4147,0.4146,0.4146,0,0.4091,0.4117,0.4136,0.4167,0.4184,0.4212,0.4217,0.4227,0.4217,0.4217,0.4241,0.4224,0.4234,0.4231,0.4209,0.4285,0.431,0.4266,0.4243,0.431,0.4431,0.4455,0.4154,0.4152,0.4151,0.415,0,0,0.4105,0.4166,0.4165,0.4194,0.4219,0.424,0.4265,0.4291,0.4319,0.4308,0.4351,0.434,0.4339,0.4335,0.4325,0.4369,0.4517,0.4356,0.4357,0.4485,0.4723,0.484,0.4876,0.4499,0.4502,0.4504,0.4797,0,0.4142,0.4206,0.4224,0.4276,0.4312,0.4319,0.4346,0.4367,0.4372,0.4407,0.4404,0.4433,0.4379,0.4404,0.4441,0.4475,0.4572,0.4444,0.4627,0.4634,0.4737,0.4904,0.4755,0.501,0.4819,0.4823,0.4826,0,0.4183,0.4221,0.4282,0.4344,0.436,0.4388,0.4437,0.4463,0.4503,0.4515,0.4544,0.4543,0.4604,0.4548,0.468,0.4605,0.4685,0.4716,0.4727,0.4813,0.4793,0.4898,0.506,0.4826,0.4862,0.4859,0.4856,0,0.4187,0.4257,0.4306,0.4327,0.4392,0.4425,0.4456,0.4497,0.453,0.4597,0.4639,0.4689,0.474,0.4806,0.488,0.4796,0.5051,0.4946,0.5147,0.5158,0.5054,0.5051,0.501,0.5093,0.5093,0.5092,0.5091,0,0.4212,0.4248,0.4316,0.4343,0.4398,0.445,0.4507,0.4543,0.4618,0.465,0.4704,0.4758,0.4804,0.4934,0.4974,0.5176,0.5154,0.5214,0.5253,0.5089,0.5086,0.4892,0.4764,0.5103,0.51,0.5098,0.5096,0,0.4191,0.4243,0.43,0.4379,0.44,0.4437,0.452,0.4554,0.465,0.4704,0.4739,0.486,0.5037,0.5151,0.5304,0.5339,0.5357,0.5576,0.542,0.5437,0.536,0.5244,0.5214,0.5071,0.5827,0.5832,0.5836,0,0.4178,0.4211,0.4293,0.4305,0.4336,0.4398,0.4423,0.4537,0.4573,0.4739,0.4762,0.4997,0.512,0.5477,0.5623,0.5851,0.5565,0.5826,0.5624,0.54,0.5298,0.508,0.4939,0.5539,0.5541,0.5542,0.5543,0,0.4137,0.4172,0.4206,0.4236,0.427,0.4301,0.4361,0.4409,0.4524,0.4627,0.4767,0.4911,0.531,0.5471,0.584,0.5934,0.5531,0.5861,0.5624,0.5103,0.4861,0.4725,0.5335,0.5552,0.5551,0.5551,0.555,0.555,0.4076,0.4082,0.412,0.4138,0.4166,0.4169,0.4158,0.4247,0.4333,0.443,0.4663,0.482,0.5157,0.5668,0.5756,0.5777,0.571,0.5579,0.5482,0.5301,0.5067,0.5769,0.6025,0.6026,0.6028,0.6029,0.603,0,0.3975,0.3991,0.4006,0.4015,0.3984,0.4042,0.4068,0.4031,0.4076,0.4265,0.4419,0.4689,0.4955,0.5191,0.5435,0.5334,0.511,0.518,0.4716,0.4612,0.5236,0.5121,0.5196,0.5196,0.5196,0.5196,0.5197,0.5197,0.3917,0.3894,0.3908,0.3826,0.3818,0.3722,0.3705,0.3688,0.3774,0.3854,0.3968,0.4186,0.4567,0.4908,0.4884,0.4807,0.4356,0.4327,0.4232,0.4524,0.4546,0.4566,0.4423,0.435,0.4349,0.3432,0.3424,0.3419]},{"header":{"parameterUnit":"m.s-1","parameterCategory":2,"la1":30.2991,"la2":30.254,"lo1":-89.0895,"lo2":-89.0444,"dy":0.0017,"dx":0.0017,"nx":28,"ny":28,"refTime":"2025-07-10T03:00:00:Z","depth":"0","parameterNumber":3,"parameterNumberName":"V-component_of_CURRENTS"},"data":[0,0,0,0,0,0,0,0,0,0,0,0,0,0,0,0,0,0,0,0,0,0,0,0,0,0,0,0,0,0,0,0,0,0,0,0,0,0,0,0,0,0,0,0,0,0,0,0,0,0,0,0,0,0,0,0,0,0,-0.1445,-0.1446,0,-0.1579,-0.158,-0.1581,-0.1612,-0.1611,-0.1611,-0.161,-0.1748,-0.1752,-0.1756,0,0,0,0,0,0,0,0,0,0,0,0,0,-0.1186,-0.1191,-0.1445,-0.1446,-0.1448,-0.1578,-0.158,-0.1582,-0.1612,-0.1611,-0.161,-0.1609,-0.1746,-0.1751,-0.1757,0,0,0,0,0,0,0,0,0,0,0,0,0,-0.1306,-0.1192,-0.1444,-0.148,-0.1484,-0.1578,-0.158,-0.1582,-0.1613,-0.1611,-0.161,-0.1609,-0.1744,-0.1751,-0.1757,-0.1824,0,0,-0.1778,-0.1781,0,0,0,0,0,0,0,0,-0.1299,-0.1315,-0.1473,-0.1478,-0.1483,-0.1578,-0.1539,-0.1664,-0.1613,-0.1563,-0.161,-0.1608,-0.1693,-0.1704,-0.173,-0.183,-0.1836,-0.1778,-0.1782,-0.1785,-0.1787,0,0,0,0,0,0,0,-0.1291,-0.131,-0.1497,-0.1475,-0.1481,-0.1479,-0.1495,-0.1563,-0.1633,-0.1567,-0.157,-0.1587,-0.1695,-0.1724,-0.1734,-0.1838,-0.1778,-0.1784,-0.1788,-0.1791,-0.198,-0.1981,0,0,0,0,0,0,-0.128,-0.1303,-0.1492,-0.1501,-0.1387,-0.1485,-0.1503,-0.1548,-0.1632,-0.1644,-0.1588,-0.1588,-0.1713,-0.1726,-0.1739,-0.1765,-0.1785,-0.1791,-0.1795,-0.1979,-0.198,-0.1981,0,0,0,0,0,0,-0.1275,-0.1297,-0.1487,-0.1403,-0.1427,-0.1491,-0.1542,-0.1551,-0.1583,-0.1648,-0.1659,-0.161,-0.1712,-0.1729,-0.1797,-0.1773,-0.1794,-0.1801,-0.1977,-0.1979,-0.198,-0.1856,0,0,0,0,0,0,-0.1267,-0.1295,-0.1326,-0.1404,-0.1432,-0.1541,-0.1543,-0.1555,-0.1596,-0.1597,-0.1671,-0.1682,-0.1713,-0.1787,-0.1804,-0.1783,-0.1806,-0.1976,-0.1978,-0.198,-0.1858,-0.1853,-0.1848,0,0,0,0,0,-0.1258,-0.1301,-0.1328,-0.135,-0.1473,-0.1542,-0.1556,-0.1595,-0.1598,-0.1618,-0.1662,-0.168,-0.181,-0.1794,-0.1813,-0.1793,-0.1975,-0.1977,-0.198,-0.1861,-0.1854,-0.1848,0,0,0,0,0,0,-0.1201,-0.1311,-0.1341,-0.1415,-0.1474,-0.1547,-0.1571,-0.1601,-0.1655,-0.1651,-0.1705,-0.172,-0.1767,-0.1818,-0.1798,-0.1859,-0.1892,-0.1899,-0.1795,-0.179,-0.1784,-0.1693,-0.1811,0,0,0,0,0,-0.1207,-0.1267,-0.1359,-0.1414,-0.1445,-0.151,-0.1544,-0.1572,-0.1628,-0.165,-0.1697,-0.175,-0.1796,-0.182,-0.1878,-0.1922,-0.19,-0.1923,-0.1918,-0.1912,-0.1856,-0.1835,-0.182,-0.1988,-0.1988,-0.1988,0,0,-0.1194,-0.1265,-0.1296,-0.1405,-0.1451,-0.1472,-0.1527,-0.1576,-0.1574,-0.1659,-0.1676,-0.1743,-0.181,-0.1843,-0.1868,-0.1876,-0.1853,-0.1915,-0.1909,-0.1855,-0.1836,-0.1818,-0.1803,-0.199,-0.199,-0.1989,0,0,-0.1163,-0.1267,-0.1283,-0.1337,-0.1413,-0.1457,-0.147,-0.1547,-0.1566,-0.1613,-0.1656,-0.1696,-0.1793,-0.1804,-0.1828,-0.1837,-0.1833,-0.1879,-0.1764,-0.1746,-0.173,-0.1715,-0.1641,-0.1621,-0.1867,-0.1866,-0.1866,0,-0.1127,-0.1175,-0.1294,-0.1312,-0.1328,-0.144,-0.1422,-0.1476,-0.1556,-0.1548,-0.1601,-0.1675,-0.1752,-0.1734,-0.174,-0.1813,-0.179,-0.1774,-0.173,-0.1715,-0.1702,-0.1631,-0.161,-0.1861,-0.1861,-0.1862,-0.1862,0,-0.1093,-0.1128,-0.1143,-0.1197,-0.1241,-0.1257,-0.1336,-0.1367,-0.1411,-0.1441,-0.1456,-0.1553,-0.1576,-0.1627,-0.1688,-0.1637,-0.1644,-0.1726,-0.1723,-0.1676,-0.1606,-0.1586,-0.1852,-0.1854,-0.1856,-0.1858,0,0,-0.0969,-0.1088,-0.1077,-0.1069,-0.1174,-0.1187,-0.1206,-0.1221,-0.1183,-0.1278,-0.1208,-0.1319,-0.1362,-0.1392,-0.1475,-0.1467,-0.138,-0.1548,-0.155,-0.143,-0.1285,-0.1266,-0.1243,-0.1457,-0.1453,-0.1451,-0.1262,0,-0.087,-0.0858,-0.0951,-0.0907,-0.0896,-0.1003,-0.0996,-0.1034,-0.1079,-0.1057,-0.1136,-0.1134,-0.1278,-0.1279,-0.1296,-0.1375,-0.1326,-0.1419,-0.1386,-0.1382,-0.1336,-0.122,-0.1191,-0.1019,-0.1243,-0.124,-0.1237,0,-0.0752,-0.0768,-0.0707,-0.0733,-0.0733,-0.0724,-0.0702,-0.0718,-0.0749,-0.078,-0.0799,-0.088,-0.0889,-0.1026,-0.1054,-0.111,-0.1161,-0.1214,-0.121,-0.1209,-0.1327,-0.1114,-0.0975,-0.1274,-0.1207,-0.121,-0.1212,0,-0.0542,-0.057,-0.0503,-0.0518,-0.0581,-0.0544,-0.0565,-0.06,-0.0579,-0.0584,-0.0553,-0.0613,-0.0615,-0.0702,-0.0857,-0.0944,-0.0859,-0.1005,-0.1,-0.0999,-0.0969,-0.0971,-0.107,-0.0952,-0.0953,-0.0953,-0.0954,0,-0.0375,-0.0313,-0.0394,-0.0357,-0.0262,-0.0362,-0.0261,-0.0299,-0.0303,-0.0236,-0.0381,-0.0315,-0.0539,-0.0561,-0.0716,-0.0767,-0.0745,-0.0904,-0.0933,-0.0928,-0.0928,-0.1188,-0.1335,-0.0946,-0.0948,-0.0949,-0.095,0,-0.0146,-0.02,-0.0129,-0.0164,-0.0161,-0.0086,-0.0096,-0.0037,-0.0066,0.0027,0.0038,-0.0052,-0.0083,-0.0266,-0.0378,-0.0553,-0.0738,-0.0645,-0.0595,-0.0622,-0.0949,-0.1087,-0.1097,-0.1176,-0.0599,-0.0597,-0.0596,0,-0.0024,0.0028,0.0031,0.0068,0.006,0.0121,0.0157,0.0107,0.0149,0.0201,0.0269,0.0271,0.0303,0.0163,-0.0125,-0.0294,-0.0584,-0.0421,-0.0601,-0.0889,-0.1065,-0.1192,-0.127,-0.0499,-0.0497,-0.0495,-0.0494,0,0.018,0.0176,0.0206,0.0272,0.0326,0.0381,0.0418,0.0492,0.0458,0.0559,0.0686,0.0745,0.0598,0.0448,0.0166,-0.0036,-0.0608,-0.039,-0.0709,-0.097,-0.1087,-0.1205,-0.0685,-0.0478,-0.0479,-0.048,-0.0481,-0.0482,0.032,0.0377,0.0387,0.0462,0.0524,0.0612,0.0694,0.0757,0.0893,0.1064,0.1057,0.1243,0.0912,0.0539,0.0215,-0.0438,-0.0454,-0.0685,-0.0807,-0.0896,-0.1037,-0.0445,-0.0289,-0.029,-0.029,-0.0291,-0.0291,0,0.044,0.0474,0.0555,0.0629,0.0726,0.0719,0.0837,0.0941,0.1151,0.1382,0.155,0.1552,0.1129,0.0579,-0.0245,-0.0765,-0.1007,-0.1097,-0.1321,-0.1367,-0.085,-0.0923,-0.0873,-0.0872,-0.0872,-0.0872,-0.0871,-0.0871,0.0499,0.0579,0.0604,0.0772,0.0839,0.0977,0.1062,0.1264,0.1449,0.1799,0.1986,0.2074,0.1626,0.0078,-0.1041,-0.1316,-0.1733,-0.178,-0.1979,-0.1737,-0.1712,-0.1689,-0.1799,-0.1933,-0.1935,-0.2464,-0.247,-0.2474]}],[{"header":{"parameterUnit":"m.s-1","parameterCategory":2,"la1":30.2991,"la2":30.254,"lo1":-89.0895,"lo2":-89.0444,"dy":0.0017,"dx":0.0017,"nx":28,"ny":28,"refTime":"2025-07-10T03:00:00:Z","depth":"2","parameterNumber":2,"parameterNumberName":"U-component_of_CURRENTS"},"data":[0,0,0,0,0,0,0,0,0,0,0,0,0,0,0,0,0,0,0,0,0,0,0,0,0,0,0,0,0,0,0,0,0,0,0,0,0,0,0,0,0,0,0,0,0,0,0,0,0,0,0,0,0,0,0,0,0,0,0.2061,0.2062,0,0.2129,0.2129,0.213,0.2155,0.2155,0.2155,0.2155,0.2173,0.2174,0.2174,0,0,0,0,0,0,0,0,0,0,0,0,0,0.1984,0.1985,0.2061,0.2062,0.2063,0.2129,0.2129,0.213,0.2155,0.2155,0.2155,0.2155,0.2173,0.2174,0.2174,0,0,0,0,0,0,0,0,0,0,0,0,0,0.203,0.1985,0.206,0.2084,0.2087,0.2128,0.2129,0.213,0.2155,0.2155,0.2155,0.2155,0.2173,0.2173,0.2174,0.2182,0,0,0.2177,0.2177,0,0,0,0,0,0,0,0,0.2027,0.2032,0.208,0.2083,0.2086,0.2135,0.2109,0.2146,0.2155,0.2128,0.2155,0.2155,0.2157,0.2159,0.217,0.2183,0.2184,0.2177,0.2178,0.2178,0.2178,0,0,0,0,0,0,0,0.2024,0.203,0.2086,0.2081,0.2085,0.2102,0.2108,0.2117,0.214,0.213,0.2132,0.2142,0.2158,0.217,0.2171,0.2184,0.2177,0.2178,0.2178,0.2179,0.2231,0.2231,0,0,0,0,0,0,0.2017,0.2027,0.2084,0.2088,0.2057,0.2104,0.211,0.2118,0.2141,0.2145,0.2142,0.2143,0.2168,0.217,0.2172,0.2207,0.2178,0.2179,0.2179,0.223,0.2231,0.2232,0,0,0,0,0,0,0.2015,0.2021,0.2081,0.206,0.2069,0.2105,0.2114,0.2119,0.2139,0.2151,0.2154,0.2157,0.2168,0.217,0.2191,0.2207,0.2179,0.218,0.2229,0.223,0.2231,0.2262,0,0,0,0,0,0,0.2013,0.202,0.2027,0.206,0.207,0.2108,0.2114,0.2121,0.2145,0.2147,0.2164,0.2166,0.2168,0.219,0.2192,0.2208,0.2181,0.2228,0.2229,0.2231,0.226,0.2264,0.2268,0,0,0,0,0,0.201,0.2017,0.2027,0.2034,0.2077,0.2109,0.2116,0.214,0.2146,0.2156,0.2173,0.2166,0.2201,0.2191,0.2194,0.221,0.2227,0.2229,0.2231,0.2258,0.2264,0.2268,0,0,0,0,0,0,0.1994,0.2022,0.2033,0.2051,0.2079,0.2114,0.2128,0.2144,0.2167,0.2169,0.2178,0.218,0.2201,0.2203,0.2192,0.223,0.2213,0.2215,0.2233,0.2238,0.2242,0.2274,0.2181,0,0,0,0,0,0.1992,0.2002,0.2036,0.2052,0.2065,0.2098,0.2116,0.2133,0.2157,0.2167,0.218,0.2195,0.221,0.2222,0.223,0.2255,0.2341,0.2267,0.2271,0.2274,0.2302,0.2433,0.2453,0.2238,0.2238,0.2238,0,0,0.1992,0.2009,0.2016,0.2049,0.2073,0.21,0.2108,0.2137,0.2164,0.2165,0.2198,0.2204,0.2218,0.2244,0.2254,0.225,0.2389,0.2276,0.2279,0.2306,0.2437,0.2459,0.2478,0.224,0.2239,0.2239,0,0,0.2001,0.2011,0.2027,0.2046,0.2083,0.2104,0.2113,0.215,0.217,0.2199,0.2209,0.2239,0.225,0.2281,0.2293,0.2328,0.2399,0.2315,0.2371,0.2497,0.2517,0.2535,0.2719,0.2753,0.2325,0.2325,0.2325,0,0.2008,0.2037,0.2038,0.206,0.209,0.2106,0.2144,0.216,0.2199,0.2237,0.221,0.2282,0.2276,0.2349,0.2351,0.2339,0.2444,0.2349,0.2506,0.2526,0.2544,0.2728,0.2765,0.2327,0.2327,0.2326,0.2326,0,0.203,0.2059,0.2071,0.2106,0.2125,0.2163,0.2185,0.2219,0.2238,0.2266,0.2331,0.2338,0.2402,0.2383,0.2372,0.2492,0.2539,0.2492,0.25,0.2568,0.2757,0.2796,0.2329,0.2329,0.2328,0.2328,0,0,0.206,0.2088,0.2098,0.214,0.2163,0.2198,0.2232,0.2302,0.2374,0.2375,0.2481,0.2474,0.2501,0.2519,0.2519,0.2602,0.2811,0.2602,0.2608,0.2798,0.316,0.3178,0.3222,0.2795,0.28,0.2805,0.3258,0,0.2104,0.2163,0.2155,0.223,0.2279,0.2296,0.2341,0.239,0.2436,0.2531,0.2549,0.2634,0.2546,0.2608,0.2668,0.2768,0.2907,0.2697,0.3054,0.3067,0.3084,0.3264,0.28,0.3162,0.3296,0.3303,0.3307,0,0.2161,0.2194,0.2277,0.2345,0.2368,0.2417,0.2537,0.2577,0.2675,0.2713,0.2784,0.2805,0.2925,0.284,0.3084,0.2959,0.3082,0.3151,0.3169,0.3203,0.3155,0.3104,0.3227,0.3373,0.3367,0.3362,0.3358,0,0.2244,0.2297,0.238,0.24,0.2462,0.2533,0.2582,0.2666,0.2739,0.2876,0.2966,0.3056,0.3182,0.3283,0.3396,0.3278,0.3696,0.3556,0.3714,0.3719,0.3404,0.3372,0.3796,0.3795,0.3794,0.3793,0.3791,0,0.2325,0.2397,0.2445,0.25,0.2623,0.2632,0.2784,0.284,0.2953,0.3069,0.3096,0.3235,0.3301,0.35,0.3545,0.379,0.3846,0.3804,0.3851,0.3407,0.3371,0.358,0.3548,0.381,0.3806,0.3803,0.38,0,0.2416,0.245,0.256,0.2641,0.2682,0.2783,0.2904,0.2984,0.3103,0.3273,0.3336,0.3479,0.3739,0.3844,0.4092,0.4051,0.4231,0.4317,0.3828,0.3809,0.4138,0.4103,0.4538,0.4543,0.4547,0.455,0.4553,0,0.2451,0.2524,0.2659,0.2717,0.2772,0.2902,0.2968,0.3073,0.3144,0.3413,0.3488,0.3812,0.3964,0.4351,0.43,0.4471,0.4535,0.4236,0.3895,0.422,0.4223,0.418,0.4141,0.3517,0.3511,0.3506,0.3502,0,0.2479,0.2559,0.2615,0.2742,0.2844,0.2957,0.3065,0.3142,0.3272,0.3427,0.3656,0.3827,0.4136,0.4061,0.4293,0.4295,0.4132,0.4152,0.4663,0.3391,0.329,0.3281,0.3269,0.3459,0.3463,0.3467,0.3469,0.3471,0.2445,0.2497,0.2554,0.2684,0.2812,0.2914,0.2954,0.3051,0.3171,0.3278,0.3583,0.3681,0.3758,0.3807,0.3815,0.3801,0.4046,0.3854,0.3854,0.3862,0.3653,0.3563,0.3751,0.3756,0.3761,0.3765,0.3769,0,0.2272,0.2345,0.2451,0.2557,0.263,0.2786,0.2903,0.2872,0.2929,0.309,0.3239,0.3022,0.3066,0.3224,0.3062,0.3144,0.2937,0.3119,0.2752,0.28,0.2841,0.2563,0.2381,0.2377,0.2374,0.2371,0,0,0.2148,0.214,0.2215,0.2274,0.2412,0.2441,0.2492,0.2519,0.2568,0.2517,0.252,0.2774,0.3004,0.2559,0.2577,0.246,0.2588,0.2378,0.3477,0.3081,0.3117,0.3257,0.2886,0,0,0,0,0]},{"header":{"parameterUnit":"m.s-1","parameterCategory":2,"la1":30.2991,"la2":30.254,"lo1":-89.0895,"lo2":-89.0444,"dy":0.0017,"dx":0.0017,"nx":28,"ny":28,"refTime":"2025-07-10T03:00:00:Z","depth":"2","parameterNumber":3,"parameterNumberName":"V-component_of_CURRENTS"},"data":[0,0,0,0,0,0,0,0,0,0,0,0,0,0,0,0,0,0,0,0,0,0,0,0,0,0,0,0,0,0,0,0,0,0,0,0,0,0,0,0,0,0,0,0,0,0,0,0,0,0,0,0,0,0,0,0,0,0,-0.0038,-0.004,0,-0.0139,-0.0141,-0.0142,-0.0232,-0.0233,-0.0234,-0.0235,-0.0341,-0.0342,-0.0344,0,0,0,0,0,0,0,0,0,0,0,0,0,0.0034,0.0033,-0.0038,-0.004,-0.0041,-0.0139,-0.0141,-0.0142,-0.0231,-0.0233,-0.0234,-0.0236,-0.034,-0.0342,-0.0344,0,0,0,0,0,0,0,0,0,0,0,0,0,-0.0024,0.0033,-0.0038,-0.0098,-0.0104,-0.0139,-0.0141,-0.0142,-0.0231,-0.0233,-0.0235,-0.0236,-0.0339,-0.0342,-0.0345,-0.0327,0,0,-0.0353,-0.0354,0,0,0,0,0,0,0,0,-0.0021,-0.0027,-0.0088,-0.0094,-0.0101,-0.0175,-0.0154,-0.0205,-0.0231,-0.0182,-0.0235,-0.0237,-0.0285,-0.0292,-0.0306,-0.0332,-0.0337,-0.0353,-0.0354,-0.0356,-0.0356,0,0,0,0,0,0,0,-0.0017,-0.0023,-0.0078,-0.0089,-0.0097,-0.0135,-0.0144,-0.0164,-0.0222,-0.0187,-0.0194,-0.0205,-0.0289,-0.0304,-0.031,-0.0338,-0.0353,-0.0355,-0.0357,-0.0358,-0.0434,-0.0435,0,0,0,0,0,0,-0.0002,-0.0019,-0.0074,-0.0081,-0.0065,-0.0135,-0.0145,-0.0149,-0.0222,-0.0235,-0.0204,-0.0209,-0.0298,-0.0306,-0.0314,-0.0338,-0.0356,-0.0358,-0.036,-0.0434,-0.0434,-0.0435,0,0,0,0,0,0,0.0001,-0.0005,-0.007,-0.0054,-0.0065,-0.0134,-0.0138,-0.015,-0.0193,-0.0236,-0.0249,-0.0237,-0.03,-0.031,-0.0352,-0.0341,-0.0359,-0.0362,-0.0433,-0.0434,-0.0434,-0.036,0,0,0,0,0,0,0.0003,-0.0003,-0.001,-0.0052,-0.0065,-0.0096,-0.0136,-0.0151,-0.0197,-0.0205,-0.0267,-0.0278,-0.0302,-0.0348,-0.0355,-0.0345,-0.0364,-0.0433,-0.0433,-0.0434,-0.0362,-0.0358,-0.0355,0,0,0,0,0,0.0006,0.0008,-0.001,-0.0017,-0.0069,-0.0096,-0.0106,-0.0161,-0.0197,-0.0207,-0.0257,-0.0277,-0.0358,-0.035,-0.0358,-0.0349,-0.0432,-0.0433,-0.0434,-0.0364,-0.0359,-0.0355,0,0,0,0,0,0,0.0027,-0.0002,-0.0023,-0.0033,-0.0065,-0.0111,-0.0135,-0.0168,-0.0217,-0.0239,-0.028,-0.0293,-0.0327,-0.0353,-0.0343,-0.0377,-0.0399,-0.0402,-0.0343,-0.0339,-0.0335,-0.0295,-0.0366,0,0,0,0,0,0.0034,0.0026,-0.0007,-0.0021,-0.0037,-0.0089,-0.0113,-0.0148,-0.0192,-0.0218,-0.0261,-0.0307,-0.0331,-0.0349,-0.0382,-0.0394,-0.0416,-0.0397,-0.0394,-0.039,-0.0366,-0.0395,-0.0391,-0.0438,-0.0438,-0.0438,0,0,0.0034,0.0017,0.0009,-0.0018,-0.0053,-0.0053,-0.0109,-0.0149,-0.0147,-0.0218,-0.0249,-0.03,-0.0336,-0.0354,-0.0371,-0.0376,-0.0393,-0.0392,-0.0388,-0.0365,-0.0396,-0.0391,-0.0386,-0.0439,-0.0438,-0.0438,0,0,0.0043,0.0018,0.0018,0.0003,-0.004,-0.0055,-0.0067,-0.0122,-0.0148,-0.0181,-0.0228,-0.0269,-0.0323,-0.0331,-0.0342,-0.0337,-0.0379,-0.0366,-0.0305,-0.0334,-0.0329,-0.0326,-0.0359,-0.0359,-0.0357,-0.0357,-0.0357,0,0.004,0.0045,0.0011,0.0013,0.0009,-0.0049,-0.004,-0.006,-0.0123,-0.0133,-0.0187,-0.0259,-0.0298,-0.0285,-0.029,-0.0322,-0.0358,-0.0312,-0.0326,-0.0322,-0.032,-0.0355,-0.0356,-0.0353,-0.0354,-0.0354,-0.0354,0,0.0063,0.0059,0.0055,0.0055,0.0051,0.004,0.0024,0.0004,-0.0044,-0.0069,-0.0106,-0.0169,-0.0212,-0.023,-0.0257,-0.0252,-0.0291,-0.0321,-0.0327,-0.031,-0.035,-0.0351,-0.0348,-0.035,-0.0351,-0.0352,0,0,0.0073,0.0072,0.0068,0.0078,0.0071,0.007,0.009,0.0093,0.0096,0.0027,0.0025,-0.0024,-0.009,-0.0107,-0.0157,-0.0171,-0.0194,-0.0236,-0.0239,-0.0251,-0.0272,-0.028,-0.0283,-0.0237,-0.0236,-0.0236,-0.031,0,0.0095,0.0114,0.0118,0.0147,0.0158,0.0146,0.0175,0.0171,0.0142,0.0123,0.0069,0.0025,-0.0031,-0.0079,-0.0095,-0.0171,-0.0195,-0.0171,-0.0302,-0.0305,-0.0298,-0.0283,-0.0306,-0.0372,-0.0313,-0.0313,-0.0313,0,0.0124,0.0134,0.0161,0.0196,0.02,0.0215,0.0247,0.0259,0.0248,0.0213,0.0173,0.0108,0.0077,0.0003,-0.0082,-0.0074,-0.0165,-0.022,-0.0225,-0.0251,-0.0315,-0.038,-0.0379,-0.0317,-0.0317,-0.0316,-0.0316,0,0.0148,0.0172,0.0196,0.0204,0.0234,0.0246,0.0259,0.0269,0.0288,0.0247,0.0236,0.018,0.0128,0.0036,-0.0076,-0.0103,-0.0167,-0.0228,-0.0312,-0.0315,-0.0364,-0.0371,-0.0291,-0.0291,-0.0291,-0.0291,-0.029,0,0.0183,0.0202,0.0197,0.0208,0.0248,0.0254,0.029,0.0294,0.0302,0.035,0.0259,0.0289,0.0129,0.0075,-0.0042,-0.0161,-0.0151,-0.0285,-0.0325,-0.0342,-0.0345,-0.032,-0.0322,-0.0293,-0.0293,-0.0292,-0.0292,0,0.021,0.0204,0.0231,0.0246,0.0255,0.0271,0.0312,0.0349,0.0334,0.0392,0.0374,0.0348,0.0294,0.016,0.0019,-0.0119,-0.0234,-0.0284,-0.0289,-0.0327,-0.0381,-0.0379,-0.0408,-0.0409,-0.041,-0.041,-0.0411,0,0.0233,0.0241,0.0249,0.0271,0.0273,0.0299,0.034,0.0351,0.0405,0.0469,0.0516,0.0471,0.0528,0.0319,0.004,-0.0175,-0.0182,-0.0368,-0.0417,-0.0352,-0.0388,-0.0385,-0.0383,-0.0471,-0.0472,-0.0473,-0.0473,0,0.0285,0.0264,0.0284,0.0317,0.0348,0.0402,0.0454,0.0512,0.0567,0.0663,0.0811,0.0867,0.0637,0.0425,0.007,-0.0092,-0.0337,-0.039,-0.0319,-0.0423,-0.0413,-0.0448,-0.0443,-0.0479,-0.0479,-0.0478,-0.0478,-0.0478,0.0322,0.0338,0.035,0.0397,0.0438,0.0524,0.0602,0.0718,0.0872,0.1055,0.107,0.1158,0.0798,0.0378,0.0054,-0.0354,-0.0344,-0.0496,-0.0493,-0.049,-0.0469,-0.0458,-0.0531,-0.053,-0.053,-0.053,-0.053,0,0.0407,0.0414,0.0448,0.0506,0.0584,0.0581,0.0715,0.0848,0.1105,0.1236,0.1408,0.1141,0.0861,0.0468,-0.0168,-0.0514,-0.0556,-0.0592,-0.0588,-0.058,-0.0574,-0.0557,-0.0643,-0.0644,-0.0645,-0.0645,0,0,0.0452,0.0506,0.0522,0.065,0.0694,0.0832,0.0929,0.1154,0.1281,0.1484,0.1509,0.1492,0.0963,0.0509,0.0026,-0.0318,-0.036,-0.0376,-0.0261,-0.0196,-0.0185,-0.0509,-0.0474,0,0,0,0,0]}],[{"header":{"parameterUnit":"m.s-1","parameterCategory":2,"la1":30.2991,"la2":30.254,"lo1":-89.0895,"lo2":-89.0444,"dy":0.0017,"dx":0.0017,"nx":28,"ny":28,"refTime":"2025-07-10T03:00:00:Z","depth":"4","parameterNumber":2,"parameterNumberName":"U-component_of_CURRENTS"},"data":[0,0,0,0,0,0,0,0,0,0,0,0,0,0,0,0,0,0,0,0,0,0,0,0,0,0,0,0,0,0,0,0,0,0,0,0,0,0,0,0,0,0,0,0,0,0,0,0,0,0,0,0,0,0,0,0,0,0,0.0761,0.0762,0,0.0853,0.0854,0.0855,0.0902,0.0903,0.0903,0.0903,0.1019,0.1022,0.1025,0,0,0,0,0,0,0,0,0,0,0,0,0,0.0628,0.063,0.0761,0.0762,0.0763,0.0853,0.0854,0.0855,0.0902,0.0903,0.0903,0.0903,0.1018,0.1022,0.1025,0,0,0,0,0,0,0,0,0,0,0,0,0,0.0698,0.0631,0.0761,0.0799,0.0804,0.0853,0.0854,0.0856,0.0902,0.0903,0.0903,0.0903,0.1017,0.1021,0.1026,0.1046,0,0,0.1039,0.1041,0,0,0,0,0,0,0,0,0.0694,0.0702,0.0792,0.0797,0.0802,0.0868,0.085,0.0921,0.0902,0.0863,0.0903,0.0903,0.0972,0.098,0.0994,0.1052,0.1057,0.1039,0.1042,0.1044,0.1045,0,0,0,0,0,0,0,0.0689,0.0699,0.0796,0.0794,0.0799,0.0813,0.0823,0.0864,0.0914,0.0866,0.0871,0.0884,0.0974,0.0989,0.0997,0.1058,0.1039,0.1043,0.1046,0.1047,0.1215,0.1217,0,0,0,0,0,0,0.0681,0.0694,0.0793,0.0799,0.0749,0.0815,0.0826,0.0845,0.0913,0.0924,0.0883,0.0885,0.0982,0.0992,0.1001,0.1127,0.1044,0.1048,0.105,0.1213,0.1216,0.1218,0,0,0,0,0,0,0.0678,0.0689,0.0789,0.0749,0.0763,0.0817,0.0838,0.0847,0.0887,0.0926,0.0937,0.0917,0.0982,0.0995,0.1062,0.1128,0.105,0.1054,0.1211,0.1214,0.1217,0.1315,0,0,0,0,0,0,0.0674,0.0687,0.0706,0.0749,0.0765,0.0834,0.0838,0.0848,0.0894,0.0898,0.0958,0.0968,0.0984,0.1056,0.1066,0.1132,0.1057,0.1209,0.1212,0.1216,0.131,0.1321,0.1331,0,0,0,0,0,0.0669,0.0689,0.0706,0.0719,0.0787,0.0835,0.0845,0.0882,0.0895,0.0918,0.0962,0.0967,0.1085,0.1061,0.1073,0.1142,0.1207,0.1211,0.1215,0.1305,0.1319,0.1331,0,0,0,0,0,0,0.0637,0.0698,0.0717,0.0755,0.0799,0.0844,0.0868,0.0897,0.0948,0.0958,0.0991,0.1005,0.1088,0.1093,0.1065,0.1197,0.1147,0.1154,0.1211,0.1225,0.1235,0.1352,0.1061,0,0,0,0,0,0.0639,0.0672,0.0729,0.0758,0.0782,0.083,0.0858,0.0888,0.0935,0.0958,0.1008,0.1057,0.1111,0.1149,0.1187,0.1262,0.1248,0.1312,0.1322,0.1331,0.1434,0.1376,0.1391,0.1231,0.1231,0.1231,0,0,0.0628,0.0671,0.0686,0.0754,0.0788,0.0838,0.0848,0.0897,0.0958,0.0963,0.1062,0.1096,0.1135,0.122,0.1258,0.1239,0.1366,0.1337,0.1345,0.1444,0.1382,0.1398,0.1412,0.1234,0.1233,0.1233,0,0,0.0624,0.0668,0.0696,0.0747,0.0814,0.085,0.0872,0.0942,0.0994,0.1075,0.1106,0.1182,0.1253,0.1315,0.1347,0.1439,0.1415,0.1448,0.1617,0.1556,0.1569,0.1581,0.1568,0.1578,0.1462,0.1462,0.1462,0,0.061,0.0668,0.071,0.0762,0.0816,0.0861,0.0918,0.0974,0.1065,0.1117,0.1115,0.1249,0.1304,0.1414,0.1516,0.1469,0.1456,0.156,0.1571,0.1582,0.1592,0.1576,0.1586,0.1467,0.1467,0.1466,0.1466,0,0.0633,0.0696,0.0719,0.0806,0.0864,0.0919,0.1007,0.1079,0.1139,0.1191,0.1306,0.1369,0.1458,0.149,0.1584,0.171,0.1683,0.1574,0.1539,0.1615,0.1592,0.1601,0.1475,0.1473,0.1472,0.147,0,0,0.0569,0.0707,0.0722,0.078,0.0904,0.0946,0.1064,0.1173,0.124,0.1327,0.1431,0.1592,0.1636,0.1689,0.175,0.1807,0.191,0.1813,0.1807,0.1809,0.1837,0.1761,0.1761,0.1796,0.1799,0.18,0.1786,0,0.0582,0.0683,0.0763,0.0868,0.093,0.1036,0.1125,0.1232,0.1324,0.1434,0.152,0.1629,0.1691,0.1777,0.1839,0.194,0.1944,0.193,0.1765,0.1763,0.1688,0.1772,0.1808,0.1792,0.1794,0.1795,0.1796,0,0.0591,0.0664,0.0777,0.0911,0.0946,0.1032,0.119,0.1287,0.1446,0.1517,0.1635,0.1696,0.1923,0.1883,0.2014,0.2014,0.1987,0.1993,0.1985,0.1914,0.1704,0.1704,0.181,0.1809,0.1808,0.1807,0.1806,0,0.0528,0.0676,0.077,0.0825,0.0978,0.1075,0.1178,0.1328,0.1415,0.1624,0.1689,0.1835,0.1953,0.1968,0.208,0.2062,0.215,0.2024,0.1871,0.1863,0.1888,0.1876,0.1999,0.1999,0.1999,0.1999,0.2,0,0.0522,0.059,0.0763,0.0813,0.0929,0.1064,0.1195,0.132,0.1487,0.1579,0.1753,0.1811,0.1996,0.206,0.2093,0.2074,0.2092,0.1983,0.1873,0.1926,0.1918,0.1892,0.188,0.1999,0.1999,0.1999,0.1999,0,0.0452,0.0559,0.0659,0.0837,0.0912,0.1011,0.1219,0.128,0.1469,0.1617,0.1703,0.1871,0.1987,0.2074,0.2131,0.2065,0.2044,0.1959,0.2101,0.1985,0.1796,0.1789,0.1831,0.1829,0.1827,0.1825,0.1823,0,0.0432,0.0478,0.0661,0.0732,0.0841,0.1003,0.1086,0.128,0.1353,0.1591,0.1631,0.1819,0.1914,0.1931,0.2023,0.2024,0.195,0.1924,0.1865,0.19,0.1788,0.1784,0.178,0.182,0.182,0.1819,0.1819,0,0.0372,0.0436,0.0513,0.0659,0.078,0.0878,0.1039,0.1072,0.1284,0.1457,0.1556,0.1652,0.1755,0.1846,0.1885,0.1842,0.1988,0.1901,0.1904,0.1848,0.1886,0.1776,0.1775,0.1812,0.1813,0.1813,0.1814,0,0.0322,0.0351,0.0448,0.0579,0.0694,0.0748,0.0836,0.0944,0.1044,0.1332,0.1337,0.153,0.1709,0.1738,0.1747,0.1788,0.1736,0.1662,0.1676,0.1685,0.1656,0.1685,0.1514,0,0,0,0,0,0.0279,0.0298,0.037,0.0479,0.0568,0.0644,0.0788,0.0864,0.1067,0.1106,0.1241,0.1333,0.1457,0.1513,0.1524,0.1649,0.1717,0.1651,0.1629,0.1773,0.1781,0.1768,0,0,0,0,0,0,0.0248,0.0296,0.0324,0.0362,0.0415,0.049,0.0571,0.0699,0.073,0.0963,0.1017,0.1238,0.1342,0.1442,0.149,0.1521,0.1478,0.1783,0.178,0.1768,0.1775,0.1782,0.1771,0,0,0,0,0]},{"header":{"parameterUnit":"m.s-1","parameterCategory":2,"la1":30.2991,"la2":30.254,"lo1":-89.0895,"lo2":-89.0444,"dy":0.0017,"dx":0.0017,"nx":28,"ny":28,"refTime":"2025-07-10T03:00:00:Z","depth":"4","parameterNumber":3,"parameterNumberName":"V-component_of_CURRENTS"},"data":[0,0,0,0,0,0,0,0,0,0,0,0,0,0,0,0,0,0,0,0,0,0,0,0,0,0,0,0,0,0,0,0,0,0,0,0,0,0,0,0,0,0,0,0,0,0,0,0,0,0,0,0,0,0,0,0,0,0,0.0576,0.0576,0,0.053,0.0529,0.0528,0.049,0.049,0.0489,0.0489,0.0389,0.0387,0.0384,0,0,0,0,0,0,0,0,0,0,0,0,0,0.0552,0.0553,0.0576,0.0576,0.0575,0.053,0.0529,0.0528,0.049,0.049,0.0489,0.0489,0.039,0.0387,0.0384,0,0,0,0,0,0,0,0,0,0,0,0,0,0.0538,0.0553,0.0576,0.0552,0.055,0.053,0.0529,0.0528,0.049,0.0489,0.0489,0.0489,0.0391,0.0387,0.0384,0.0367,0,0,0.0372,0.0371,0,0,0,0,0,0,0,0,0.0539,0.0538,0.0556,0.0554,0.0551,0.0517,0.0484,0.0472,0.049,0.051,0.0489,0.0489,0.0429,0.0422,0.0411,0.0362,0.0358,0.0372,0.037,0.0368,0.0367,0,0,0,0,0,0,0,0.054,0.054,0.0555,0.0556,0.0553,0.0517,0.0515,0.0481,0.0469,0.0508,0.0506,0.0505,0.0427,0.0415,0.0409,0.0357,0.0372,0.0369,0.0367,0.0365,0.0297,0.0297,0,0,0,0,0,0,0.0555,0.0541,0.0557,0.0554,0.0547,0.0518,0.0516,0.0527,0.047,0.0463,0.0505,0.0503,0.0422,0.0413,0.0405,0.0375,0.0368,0.0365,0.0363,0.0296,0.0297,0.0297,0,0,0,0,0,0,0.0555,0.0557,0.0559,0.0547,0.0545,0.052,0.0531,0.0526,0.0524,0.0469,0.046,0.051,0.0421,0.041,0.039,0.0371,0.0363,0.036,0.0296,0.0296,0.0297,0.0318,0,0,0,0,0,0,0.0555,0.0558,0.0576,0.0549,0.0547,0.0558,0.0532,0.0525,0.0524,0.0521,0.047,0.046,0.042,0.0396,0.0386,0.0365,0.0357,0.0295,0.0296,0.0297,0.0317,0.0319,0.0322,0,0,0,0,0,0.0554,0.0581,0.0577,0.0579,0.0571,0.0559,0.0555,0.0532,0.0525,0.0529,0.0498,0.0462,0.0393,0.0394,0.0382,0.036,0.0295,0.0296,0.0297,0.0316,0.0319,0.0321,0,0,0,0,0,0,0.0581,0.0579,0.0574,0.06,0.0586,0.0554,0.0558,0.0544,0.0524,0.0522,0.0471,0.0459,0.0431,0.0404,0.0406,0.0345,0.0336,0.0335,0.0355,0.0357,0.0359,0.0351,0.0354,0,0,0,0,0,0.0597,0.0615,0.06,0.062,0.0617,0.0591,0.0586,0.0571,0.0547,0.0539,0.0504,0.0466,0.0425,0.0401,0.0368,0.0338,0.0285,0.0317,0.032,0.0322,0.0309,0.0204,0.0194,0.03,0.03,0.03,0,0,0.0611,0.0613,0.0624,0.0627,0.0613,0.0595,0.0587,0.0585,0.0562,0.053,0.0501,0.0477,0.0423,0.0386,0.037,0.036,0.0272,0.0323,0.0324,0.0311,0.0204,0.0193,0.0183,0.0301,0.03,0.03,0,0,0.0622,0.0653,0.0654,0.0648,0.0637,0.0619,0.0624,0.0601,0.0587,0.0563,0.0529,0.0492,0.0447,0.0389,0.0354,0.035,0.0293,0.0357,0.0348,0.0246,0.0235,0.0225,0.0174,0.0159,0.035,0.035,0.035,0,0.0633,0.0637,0.0652,0.0641,0.0633,0.063,0.0612,0.0596,0.0569,0.0547,0.0559,0.0464,0.043,0.0345,0.0357,0.0347,0.0309,0.0339,0.0245,0.0234,0.0223,0.0172,0.0155,0.0351,0.0351,0.0351,0.035,0,0.062,0.0631,0.0635,0.0617,0.0615,0.061,0.0589,0.0584,0.0575,0.0541,0.0487,0.0444,0.0381,0.0371,0.0365,0.0279,0.0287,0.0264,0.0232,0.0213,0.0162,0.0144,0.0352,0.0352,0.0352,0.0351,0,0,0.061,0.0621,0.062,0.0615,0.0605,0.0599,0.0576,0.0537,0.0512,0.0482,0.0435,0.0369,0.0356,0.0319,0.0299,0.0226,0.014,0.0232,0.0226,0.0171,-0.0044,-0.0028,-0.0047,0.0105,0.0102,0.0099,-0.0039,0,0.0584,0.0574,0.058,0.0564,0.0556,0.0557,0.053,0.0502,0.0482,0.0447,0.0383,0.0348,0.033,0.0328,0.0238,0.0181,0.009,0.0182,-0.0009,-0.0014,-0.0009,-0.0069,0.0088,-0.0052,-0.0057,-0.006,-0.0062,0,0.0547,0.0552,0.0545,0.054,0.0535,0.0538,0.0512,0.0492,0.044,0.0423,0.0361,0.0333,0.0247,0.0246,0.0057,0.0127,0.0039,-0.0022,-0.003,-0.0043,-0.0035,-0.0037,-0.0095,-0.0093,-0.009,-0.0088,-0.0086,0,0.0522,0.0519,0.0524,0.0525,0.052,0.0531,0.0534,0.0495,0.0491,0.0442,0.0436,0.0301,0.0278,0.0122,0.0012,0.0037,-0.0191,-0.0189,-0.028,-0.0278,-0.0259,-0.0247,-0.037,-0.037,-0.037,-0.037,-0.0369,0,0.0487,0.0487,0.0534,0.0538,0.0561,0.0552,0.0565,0.0549,0.0529,0.0527,0.0449,0.0404,0.025,0.0118,-0.0011,-0.0195,-0.0235,-0.0302,-0.0334,-0.0238,-0.0222,-0.027,-0.0256,-0.0375,-0.0374,-0.0373,-0.0372,0,0.0467,0.0484,0.0503,0.0533,0.0563,0.0595,0.0651,0.0647,0.0624,0.0632,0.0634,0.0492,0.0321,0.0142,-0.0096,-0.0204,-0.039,-0.0458,-0.0318,-0.0335,-0.0398,-0.0381,-0.0571,-0.0573,-0.0573,-0.0574,-0.0575,0,0.0453,0.0467,0.0539,0.0591,0.0633,0.0691,0.0729,0.0723,0.0733,0.0673,0.0671,0.0522,0.0413,0.0077,-0.0128,-0.0407,-0.0445,-0.0531,-0.0492,-0.0418,-0.0429,-0.0411,-0.0393,-0.0576,-0.0577,-0.0577,-0.0577,0,0.0437,0.048,0.0508,0.0627,0.0706,0.077,0.0835,0.0836,0.082,0.0815,0.0708,0.0542,0.0336,0.0076,-0.0136,-0.0344,-0.0465,-0.0541,-0.054,-0.0504,-0.0426,-0.0432,-0.0414,-0.058,-0.058,-0.0579,-0.0579,0,0.0445,0.0477,0.0542,0.0647,0.0772,0.084,0.0839,0.0848,0.0844,0.0796,0.0751,0.0533,0.0419,0.0103,-0.0111,-0.0292,-0.0334,-0.0374,-0.0383,-0.0382,-0.0282,-0.0152,-0.0274,0,0,0,0,0,0.0446,0.0481,0.0561,0.0648,0.0779,0.0853,0.0915,0.089,0.0885,0.0838,0.0803,0.0618,0.0307,0.0132,-0.0048,-0.015,-0.0385,-0.0368,-0.044,-0.0598,-0.0594,-0.0509,0,0,0,0,0,0,0.0443,0.0506,0.0538,0.0664,0.0745,0.0848,0.0903,0.0866,0.0822,0.0806,0.0627,0.0594,0.0265,0.0429,-0.0042,-0.0104,-0.017,-0.0506,-0.0509,-0.06,-0.0597,-0.0594,-0.0504,0,0,0,0,0]}]]